STARLINK-5153, 54088

Orbit data source: Space-Track

STARLINK-5153, 54088 is a payload satellite owned by SpaceX/Seattle (US) in LEO that was launched on Thu, 20 Oct 2022 UTC via an FALCON 9 launch vehicle from the Air Force Eastern Test Range (AFETR). Payload-class satellites include a variety of spacecraft equipped with specific instruments for various scientific and technological missions. These include communications satellites like Starlink; space stations such as the ISS; scientific satellites like the Hubble; Earth observation satellites from companies like Planet Labs, Umbra, and HawkEye 360; GPS; miniature CubeSats for education and research; and military/defense satellites.

Loading next visibility...
Identifier
54088, 2022-136AP
Orbit
LEO
Country
Flag of USUS
Related business
Manufacturer
SpaceX/Seattle
Mission
Operational Commercial Communications
Bus & Motor
STARLINK, Unknown motor
Mass
305 kg wet, ~290 kg dry
Launch date (UTC)
2022-10-20 (4 years ago)
Launch vehicle
FALCON 9
Launch site
Air Force Eastern Test Range (AFETR)
Object type
Payload
Rocket body
Debris
Shape & HBR
Box + 1 Pan, 10.1 m
Radar Cross Section
13.562 m², Large (>1 m²)

Expand to show TLE details & history
Last TLE update: 2 days ago

TLE from 2 days ago
0 STARLINK-5153
1 54088U 22136AP  26171.43512317 -.00000731  00000-0 -27859-4 0  9990
2 54088  53.1591 232.8678 0001287  70.0426 290.0704 15.08828586202494
Epoch: 2026-06-20T10:26Z
TLE epoch observation values (Epoch: 2026-06-20T10:26:34.641Z)
Latitude
-0.00004°
Longitude
167.57364°
Altitude
540.364 km
Speed
7.594 km/s
True Right ascension
15h 31m 28s
True Declination
0° 00' 00"
Sunlit
Object was in full shadow at epoch
Visualization orbit readout
Latitude
Unknown
Longitude
Unknown
Altitude
Unknown
Speed
Unknown
Apparent Right ascension
Unknown
Apparent Declination
Unknown
Sunlit
N/A
Visualization observer readout
Local Sidereal Time
21:41:18
Azimuth
Unknown
Elevation
Unknown
Doppler factor
Unknown
Orbital elements
Apogee altitude
540.923 km
Perigee altitude
539.142 km
Semi-major axis
6,918.17 km
Eccentricity
0.00013
Inclination
53.1591°
RAAN
232.8678°
Arg. of periapsis
70.0426°
True anomaly
290.05655°
Mean anomaly
290.0704°
Eccentric anomaly
290.06347°
Mean motion
3.77187 °/min
Orbital period
95.44 mins
BSTAR
-0.000027859
Loading maneuver chart data...
Computing Atmospheric mass density...
Loading historical data...
Loading historical data...
Loading historical data...
Loading historical data...
Loading historical data...
Loading historical data...
Loading historical data...

Documentation

Showing up to 5 results
|